Waarnemingen

Advertentie
Mijn weer
Calvi, Frankrijk (7754): temperatuur & dauwpunt: 13.04.2018 23:00:00 - 19.04.2018 23:00:00 (CEST)Calvi, Frankrijk (7754): temperatuur 5cm: 13.04.2018 23:00:00 - 19.04.2018 23:00:00 (CEST)Calvi, Frankrijk (7754): windsnelheid & windstoten: 13.04.2018 23:00:00 - 19.04.2018 23:00:00 (CEST)Calvi, Frankrijk (7754): windrichting: 13.04.2018 23:00:00 - 19.04.2018 23:00:00 (CEST)Calvi, Frankrijk (7754): luchtdruk: 13.04.2018 23:00:00 - 19.04.2018 23:00:00 (CEST)Calvi, Frankrijk (7754): zicht: 13.04.2018 23:00:00 - 19.04.2018 23:00:00 (CEST)Calvi, Frankrijk (7754): Zonneschijnduur: 13.04.2018 23:00:00 - 19.04.2018 23:00:00 (CEST)Calvi, Frankrijk (7754): neerslag: 13.04.2018 23:00:00 - 19.04.2018 23:00:00 (CEST)
Datum & Tijd tt [°C] td [°C] tt 5cm [°C] ff [km/u] ff [kn] fx [km/u] fx [kn] dd ppp [hPa] vv [km] sd [min] rr [mm]
19.04.2018 23:00:00 12,3 9,5 11,6 6 3 10 6 ZZO 1024,0 20 0 0,0
19.04.2018 22:00:00 14,1 10,5 13,2 6 3 12 6 Z 1024,0 10 0 0,0
19.04.2018 21:00:00 15,1 11,3 13,8 4 2 8 4 ZZO 1024,1 24 0 0,0
19.04.2018 20:00:00 17,5 12,2 17,0 6 4 13 7 NO 1023,8 35 19 0,0
19.04.2018 19:00:00 20,7 10,8 22,7 10 5 16 8 N 1023,6 20 60 0,0
19.04.2018 18:00:00 22,0 9,5 25,9 13 7 21 12 N 1023,7 39 60 0,0
19.04.2018 17:00:00 22,3 9,8 27,0 14 8 23 13 N 1023,8 51 60 0,0
19.04.2018 16:00:00 22,3 9,5 27,6 9 5 25 14 NW 1024,3 20 60 0,0
19.04.2018 15:00:00 22,4 9,5 23,8 16 9 27 15 N 1024,7 45 54 0,0
19.04.2018 14:00:00 22,5 10,0 23,0 15 8 35 19 NW 1024,7 48 44 0,0
19.04.2018 13:00:00 23,1 11,5 26,3 13 7 26 14 NW 1024,7 47 60 0,0
19.04.2018 12:00:00 22,9 11,0 26,1 14 7 24 13 NNW 1024,8 44 60 0,0
19.04.2018 11:00:00 22,4 10,2 24,9 11 6 18 10 NNW 1024,6 20 60 0,0
19.04.2018 10:00:00 22,2 10,3 22,9 4 2 9 5 NNW 1024,4 20 60 0,0
19.04.2018 09:00:00 19,3 9,5 16,2 3 1 10 6 ZZO 1024,3 51 60 0,0
19.04.2018 08:00:00 14,6 10,6 11,9 5 3 15 8 Z 1024,4 20 35 0,0
19.04.2018 07:00:00 12,8 8,7 11,2 11 6 18 10 ZZW 1024,3 45 0 0,0
19.04.2018 06:00:00 12,6 8,5 11,1 6 3 16 9 ZZO 1024,3 48 0 0,0
19.04.2018 05:00:00 12,9 9,0 10,6 10 6 16 9 Z 1024,7 43 0 0,0
19.04.2018 04:00:00 12,4 8,7 10,7 6 4 11 6 Z 1025,0 40 0 0,0
19.04.2018 03:00:00 13,1 8,4 11,7 5 3 15 8 ZZO 1025,1 43 0 0,0
19.04.2018 02:00:00 13,5 8,5 12,4 8 5 18 10 Z 1025,3 41 0 0,0
19.04.2018 01:00:00 14,2 8,6 13,3 12 7 17 9 Z 1025,3 43 0 0,0
19.04.2018 00:00:00 15,6 8,6 14,5 9 5 22 12 Z 1025,2 46 0 0,0
18.04.2018 23:00:00 18,3 8,3 14,2 16 8 31 17 N 1025,1 50 0 0,0
18.04.2018 22:00:00 16,3 8,8 13,8 6 4 17 9 NNO 1025,2 51 0 0,0
18.04.2018 21:00:00 17,2 8,9 16,0 8 4 21 11 Z 1024,7 54 0 0,0
18.04.2018 20:00:00 19,6 8,6 18,5 13 7 26 14 N 1024,2 58 1 0,0
18.04.2018 19:00:00 21,8 8,0 21,8 18 10 40 22 NNO 1024,0 52 33 0,0
18.04.2018 18:00:00 22,4 8,5 23,0 26 14 37 20 NNO 1023,9 37 16 0,0
18.04.2018 17:00:00 23,4 9,8 24,1 26 14 42 23 N 1023,9 57 28 0,0
18.04.2018 16:00:00 23,2 8,5 24,6 27 14 43 23 NNO 1024,0 49 23 0,0
18.04.2018 15:00:00 23,8 8,6 26,5 27 15 46 25 NNO 1024,1 20 55 0,0
18.04.2018 14:00:00 23,9 9,1 26,0 27 15 41 22 NNO 1024,2 60 55 0,0
18.04.2018 13:00:00 23,7 8,9 24,4 22 12 41 22 NO 1024,5 20 40 0,0
18.04.2018 12:00:00 23,5 9,8 24,7 23 12 48 26 NNO 1024,4 19 56 0,0
18.04.2018 11:00:00 22,9 9,3 23,6 27 15 54 29 NNO 1024,4 19 60 0,0
18.04.2018 10:00:00 22,1 8,6 21,6 30 16 51 27 NO 1024,3 58 60 0,0
18.04.2018 09:00:00 21,2 9,7 18,6 27 15 47 26 NNO 1023,5 60 60 0,0
18.04.2018 08:00:00 18,3 9,4 11,2 21 11 34 18 N 1023,4 60 45 0,0
18.04.2018 07:00:00 11,6 10,3 9,7 6 3 15 8 Z 1023,2 20 0 0,0
18.04.2018 06:00:00 11,2 9,8 9,7 3 1 21 11 ZZW 1023,2 17 0 0,0
18.04.2018 05:00:00 11,8 10,9 10,6 11 6 17 9 Z 1023,4 15 0 0,0
18.04.2018 04:00:00 11,4 10,5 10,5 8 4 16 9 Z 1023,4 19 0 0,0
18.04.2018 03:00:00 12,0 11,2 11,0 9 5 17 9 ZZW 1023,8 18 0 0,0
18.04.2018 02:00:00 11,4 10,6 10,3 12 7 16 9 ZZO 1024,3 17 0 0,0
18.04.2018 01:00:00 11,1 10,2 10,4 4 2 9 5 Z 1024,2 14 0 0,0
18.04.2018 00:00:00 11,9 10,8 11,0 3 2 14 8 ZZO 1023,9 14 0 0,0
17.04.2018 23:00:00 12,1 10,8 11,6 8 4 13 7 Z 1023,7 16 0 0,0
17.04.2018 22:00:00 12,8 11,4 12,1 4 2 8 4 ZZW 1023,3 16 0 0,0
17.04.2018 21:00:00 13,8 11,8 12,8 3 1 11 6 ZW 1022,3 18 0 0,0
17.04.2018 20:00:00 15,4 13,2 15,2 8 5 18 10 NW 1021,3 19 16 0,0
17.04.2018 19:00:00 17,2 12,7 18,9 9 5 30 16 N 1020,8 32 60 0,0
17.04.2018 18:00:00 16,7 13,2 19,6 18 10 32 17 NNW 1020,7 18 60 0,0
17.04.2018 17:00:00 18,1 13,4 22,3 16 9 27 15 NNW 1020,4 19 60 0,0
17.04.2018 16:00:00 17,7 14,4 22,2 17 9 30 16 NW 1020,3 18 60 0,0
17.04.2018 15:00:00 18,4 14,3 22,2 15 8 32 17 NW 1020,7 17 60 0,0
17.04.2018 14:00:00 17,8 13,5 21,1 19 11 33 18 NW 1020,6 19 60 0,0
17.04.2018 13:00:00 18,2 14,3 21,4 18 10 33 18 NW 1020,5 18 60 0,0
17.04.2018 12:00:00 18,1 13,6 21,3 15 8 26 14 NW 1020,7 20 60 0,0
17.04.2018 11:00:00 17,8 12,9 19,1 10 5 21 11 NNW 1020,5 18 60 0,0
17.04.2018 10:00:00 16,3 13,0 18,4 10 5 16 9 N 1020,1 18 60 0,0
17.04.2018 09:00:00 15,6 12,3 13,7 0 0 7 4 N 1019,6 19 60 0,0
17.04.2018 08:00:00 11,9 9,6 8,6 5 3 9 5 Z 1018,7 38 31 0,0
17.04.2018 07:00:00 9,2 7,3 7,4 8 5 14 7 ZZW 1018,2 47 0 0,0
17.04.2018 06:00:00 8,8 6,6 7,4 0 0 6 4 N 1017,6 31 0 0,0
17.04.2018 05:00:00 9,9 6,4 8,7 10 5 14 8 Z 1017,0 43 0 0,0
17.04.2018 04:00:00 10,2 7,6 8,9 11 6 17 9 Z 1016,7 44 0 0,0
17.04.2018 03:00:00 9,8 8,1 8,8 5 3 11 6 Z 1016,7 32 0 0,0
17.04.2018 02:00:00 10,3 8,4 9,7 6 4 13 7 ZO 1016,2 33 0 0,0
17.04.2018 01:00:00 12,7 10,8 11,5 7 4 15 8 ZZW 1015,9 14 0 0,0
17.04.2018 00:00:00 15,3 12,4 13,3 6 4 23 13 NNW 1015,3 18 0 0,0
16.04.2018 23:00:00 18,2 8,5 15,2 15 8 22 12 Z 1014,7 39 0 0,0
16.04.2018 22:00:00 17,7 9,3 16,8 13 7 25 13 Z 1014,4 59 0 0,0
16.04.2018 21:00:00 17,8 9,4 16,8 19 10 27 15 Z 1013,6 59 0 0,0
16.04.2018 20:00:00 18,3 9,6 17,9 21 11 28 15 Z 1012,9 59 0 0,0
16.04.2018 19:00:00 20,3 8,6 20,3 14 8 26 14 Z 1012,2 60 0 0,0
16.04.2018 18:00:00 21,4 8,6 22,1 10 5 26 14 Z 1011,7 59 0 0,0
16.04.2018 17:00:00 22,2 7,2 23,5 16 8 32 18 ZW 1011,5 57 11 0,0
16.04.2018 16:00:00 22,9 11,0 25,7 8 5 21 11 NNW 1011,1 20 60 0,0
16.04.2018 15:00:00 22,3 10,1 26,5 14 8 22 12 NNO 1011,2 18 60 0,0
16.04.2018 14:00:00 22,7 9,5 25,1 16 9 23 13 N 1011,4 19 60 0,0
16.04.2018 13:00:00 21,3 11,3 24,5 13 7 17 9 N 1011,7 19 60 0,0
16.04.2018 12:00:00 19,6 11,9 21,6 11 6 21 12 NNO 1011,9 19 60 0,0
16.04.2018 11:00:00 19,1 11,4 21,2 11 6 16 8 N 1011,7 18 60 0,0
16.04.2018 10:00:00 18,6 10,4 19,4 4 2 9 5 N 1011,5 19 60 0,0
16.04.2018 09:00:00 16,1 10,8 13,7 0 0 4 2 N 1011,2 18 60 0,0
16.04.2018 08:00:00 12,7 9,9 9,6 2 1 8 4 NNO 1010,8 18 28 0,0
16.04.2018 07:00:00 10,6 7,8 9,3 4 2 15 8 ZO 1010,2 18 0 0,0
16.04.2018 06:00:00 12,5 8,4 10,5 11 6 21 11 ZZW 1009,5 34 0 0,0
16.04.2018 05:00:00 11,8 8,6 10,3 6 3 20 11 Z 1009,7 40 0 0,0
16.04.2018 04:00:00 12,6 10,1 11,1 11 6 16 8 Z 1009,9 20 0 0,0
16.04.2018 03:00:00 12,3 10,4 11,8 8 5 14 7 Z 1010,4 20 0 0,0
16.04.2018 02:00:00 12,8 11,0 12,2 8 4 11 6 Z 1010,6 27 0 0,0
16.04.2018 01:00:00 12,9 11,1 11,8 7 4 13 7 ZZW 1010,4 20 0 0,0
16.04.2018 00:00:00 12,6 10,7 12,2 11 6 13 7 ZZO 1010,5 28 0 0,0
15.04.2018 23:00:00 12,5 10,7 11,3 8 5 14 8 ZZO 1010,1 20 0 0,0
15.04.2018 22:00:00 12,0 10,1 11,6 10 5 12 6 ZZO 1009,9 19 0 0,0
15.04.2018 21:00:00 14,1 10,5 12,3 3 2 10 5 Z 1009,3 20 0 0,0
15.04.2018 20:00:00 15,7 11,1 14,9 6 3 10 6 N 1008,8 20 0 0,0
15.04.2018 19:00:00 16,8 10,9 17,8 5 3 13 7 N 1008,1 19 0 0,0
15.04.2018 18:00:00 17,0 10,6 18,0 10 6 24 13 NNW 1008,0 20 0 0,0
15.04.2018 17:00:00 17,9 10,5 20,6 11 6 29 16 NNW 1007,6 20 60 0,0
15.04.2018 16:00:00 18,3 10,6 22,7 18 10 29 16 NW 1007,8 20 60 0,0
15.04.2018 15:00:00 19,1 10,1 23,3 16 9 41 22 NNW 1007,9 40 60 0,0
15.04.2018 14:00:00 20,5 10,3 22,6 19 11 40 22 NNW 1008,0 44 60 0,0
15.04.2018 13:00:00 20,1 9,9 22,6 26 14 38 21 N 1008,9 20 60 0,0
15.04.2018 12:00:00 19,6 10,0 20,0 19 10 37 20 NNO 1009,4 20 51 0,0
15.04.2018 11:00:00 18,0 10,6 15,9 20 11 31 17 NNO 1009,8 60 14 0,0
15.04.2018 10:00:00 15,9 10,9 14,2 4 2 18 10 NNW 1010,4 43 0 0,0
15.04.2018 09:00:00 15,0 10,2 12,7 13 7 33 18 NNO 1010,9 40 0 0,0
15.04.2018 08:00:00 14,0 11,0 12,5 3 2 21 11 W 1010,8 12 0 0,6
15.04.2018 07:00:00 13,9 11,2 12,6 6 3 20 11 WNW 1011,1 20 0 0,0
15.04.2018 06:00:00 13,5 11,0 12,4 6 4 24 13 WNW 1010,0 38 0 0,0
15.04.2018 05:00:00 13,3 12,0 12,6 4 2 11 6 ZW 1010,2 14 0 0,0
15.04.2018 04:00:00 13,8 12,0 12,8 7 4 16 9 ZZW 1011,1 7 0 1,2
15.04.2018 03:00:00 14,3 11,3 13,4 6 4 13 7 ZZW 1011,3 20 0 0,0
15.04.2018 02:00:00 14,9 11,1 13,7 6 3 10 5 W 1011,7 20 0 0,0
15.04.2018 01:00:00 14,5 10,7 13,7 3 2 7 4 Z 1012,6 34 0 0,0
15.04.2018 00:00:00 14,4 10,8 13,8 5 3 16 8 ZZW 1012,9 36 0 0,0
14.04.2018 23:00:00 15,5 10,0 13,6 7 4 15 8 NO 1013,7 44 0 0,0
14.04.2018 22:00:00 14,3 10,5 13,0 6 3 13 7 ZZO 1013,8 44 0 0,0
14.04.2018 21:00:00 15,7 10,0 14,4 2 1 18 10 OZO 1013,2 20 0 0,0
14.04.2018 20:00:00 16,6 10,2 16,3 7 4 14 8 WNW 1012,7 30 0 0,0
14.04.2018 19:00:00 17,9 10,5 17,9 4 2 26 14 NW 1012,2 20 0 0,0
14.04.2018 18:00:00 19,0 10,5 20,4 15 8 30 16 NNW 1012,2 20 40 0,0
14.04.2018 17:00:00 17,9 12,1 20,1 16 9 33 18 NNW 1012,4 16 38 0,0
14.04.2018 16:00:00 19,5 12,5 21,6 11 6 35 19 NW 1012,6 29 60 0,0
14.04.2018 15:00:00 18,1 12,1 22,3 21 11 37 20 WNW 1013,1 18 60 0,0
14.04.2018 14:00:00 19,2 12,5 21,9 14 8 32 17 WNW 1013,6 18 60 0,0
14.04.2018 13:00:00 19,0 11,3 21,5 16 9 30 16 NW 1014,0 19 60 0,0
14.04.2018 12:00:00 20,0 11,7 21,8 13 7 24 13 NNW 1014,5 19 60 0,0
14.04.2018 11:00:00 19,5 9,9 18,6 8 4 19 11 NNW 1014,4 19 58 0,0
14.04.2018 10:00:00 16,4 7,6 15,8 11 6 21 11 NW 1014,9 42 60 0,0
14.04.2018 09:00:00 14,3 8,9 10,4 5 3 14 8 ZO 1015,2 60 34 0,0
14.04.2018 08:00:00 10,6 7,3 8,4 12 6 16 8 Z 1015,7 47 0 0,0
14.04.2018 07:00:00 9,3 7,1 8,1 10 5 16 8 Z 1016,2 60 0 0,0
14.04.2018 06:00:00 10,4 8,0 9,1 11 6 14 8 Z 1015,9 59 0 0,0
14.04.2018 05:00:00 10,4 7,5 9,5 2 1 12 7 O 1016,3 59 0 0,0
14.04.2018 04:00:00 10,7 7,4 10,2 9 5 13 7 Z 1016,5 60 0 0,0
14.04.2018 03:00:00 10,8 8,2 9,7 9 5 11 6 Z 1016,8 60 0 0,0
14.04.2018 02:00:00 10,2 8,0 9,4 5 3 9 5 O 1017,2 60 0 0,0
14.04.2018 01:00:00 10,5 8,1 9,3 6 4 10 5 Z 1017,2 60 0 0,0
14.04.2018 00:00:00 10,8 7,8 9,5 4 2 10 5 ZW 1016,8 60 0 0,0
13.04.2018 23:00:00 10,4 7,8 9,6 7 4 15 8 ZW 1016,6 60 0 0,0

tt = temperatuur
td = dauwpunt
tt 5cm = temperatuur 5cm
ff = windsnelheid
fx = windstoten
dd = windrichting
ppp = luchtdruk
vv = zicht
sd = Zonneschijnduur
rr = neerslag

Weerstations in de omgeving